Wind_Speed
10 11 10 11 11 11 11 11 11 12 12 12 12 12 13 13 13 13 13 14 13 13 13 13 13 13 12 12 13 15 16 16 16 18 23 20 13 11 12 12 12 13 14 15 15 14 15 16 15 14 15 12 9 9 10 10 7 4 2 2 2 3 4 4 5 4 1 3 7 4 5 5 4 5 9 7 9 10 8 2 2 4 3 5 6 12 28 27
11 11 11 11 11 11 11 12 12 13 13 13 13 14 14 14 14 14 15 15 14 14 13 14 14 14 13 12 13 15 17 18 18 22 24 17 12 11 10 11 14 14 15 17 16 14 15 16 17 17 15 11 7 7 8 8 9 6 3 2 4 4 5 5 6 6 3 4 9 5 5 5 4 5 8 4 1 4 4 1 5 7 6 7 11 21 28 25
11 11 11 11 12 12 11 12 13 14 14 14 14 14 14 15 15 15 16 16 15 14 14 15 15 14 12 12 13 15 16 17 20 25 22 14 16 16 13 13 15 15 14 12 13 13 13 13 15 16 14 9 6 8 5 6 9 7 4 2 5 6 5 10 11 14 14 10 8 3 5 5 4 4 6 5 3 2 2 3 5 9 13 15 20 27 26 26
12 12 11 11 12 12 12 12 13 14 14 15 15 15 15 15 15 16 16 16 15 15 15 15 15 13 12 12 13 12 13 15 17 21 15 11 16 16 16 17 15 15 14 11 10 11 11 11 14 14 11 6 5 6 4 7 7 5 6 3 5 5 4 14 15 15 18 13 8 2 4 4 5 4 6 9 6 1 5 11 9 11 19 21 25 28 26 28
13 13 12 12 11 12 13 13 14 15 15 16 15 15 15 15 16 16 16 16 15 15 14 15 14 12 11 12 11 9 7 7 7 8 6 7 12 13 16 18 16 14 14 13 11 11 13 13 14 13 8 3 2 3 4 10 8 2 5 6 6 4 4 14 13 12 16 14 10 2 4 0 4 3 9 11 5 3 7 11 12 13 19 20 25 27 26 28
13 13 13 12 12 12 13 13 14 15 16 16 16 16 16 16 16 15 15 15 15 15 15 15 13 11 12 11 11 8 3 3 2 1 3 4 6 11 14 17 17 15 16 15 12 14 16 14 14 11 7 3 3 4 5 10 9 3 6 6 10 10 8 12 11 11 14 11 9 2 1 1 3 4 6 11 6 4 7 10 12 13 17 18 21 24 26 28
14 14 13 12 12 12 13 13 14 15 16 16 16 16 16 16 15 15 14 14 14 15 15 15 12 11 11 10 10 8 10 15 10 3 4 1 2 8 13 17 18 17 18 17 15 16 17 16 15 11 6 2 4 7 7 8 7 5 5 5 12 15 14 19 18 15 14 11 9 4 3 2 2 5 2 8 7 5 6 9 10 14 18 20 20 23 26 28
14 14 13 13 12 13 13 14 15 15 16 16 16 16 16 16 15 15 14 13 14 15 15 15 12 12 11 9 10 8 14 20 11 7 9 4 2 5 11 15 17 18 19 18 18 18 18 19 17 11 5 4 5 5 6 6 4 6 6 7 11 15 19 25 24 22 19 15 11 6 5 6 8 5 3 7 8 3 7 10 11 18 22 22 23 25 27 27
16 14 13 13 13 13 13 14 15 15 16 16 15 15 16 16 15 14 13 13 14 14 16 14 12 12 10 9 8 7 16 18 10 10 13 8 5 6 8 11 14 17 18 17 16 17 19 20 19 14 6 6 7 4 5 4 3 7 10 10 9 13 19 20 19 21 22 19 11 5 5 10 10 5 4 8 6 4 10 11 13 20 24 24 25 26 25 27
16 14 13 13 13 13 14 14 14 15 15 16 15 15 15 15 15 14 13 13 14 14 15 13 12 11 10 10 6 4 13 15 10 12 14 11 8 8 8 8 10 13 15 16 17 19 23 21 18 14 7 6 6 6 7 6 3 5 9 11 11 16 18 14 14 16 17 15 12 7 7 11 7 3 4 4 3 9 12 12 17 22 24 26 26 25 24 26
16 14 13 13 14 14 14 14 14 15 14 15 15 15 15 15 14 14 14 13 13 14 14 13 11 10 11 11 10 8 10 9 9 11 11 11 9 7 5 4 6 10 14 16 20 25 25 19 13 7 4 4 4 5 6 5 4 7 6 7 10 12 11 9 11 11 9 7 13 13 6 8 1 3 8 5 6 13 15 16 20 23 24 25 25 24 24 27
18 17 15 13 13 14 14 14 14 14 14 14 15 15 15 14 14 14 14 13 13 13 13 11 10 11 10 11 17 17 12 8 8 11 10 9 8 5 5 5 5 7 13 17 22 26 22 15 9 7 5 3 2 2 3 3 5 8 4 4 7 6 5 7 5 8 8 2 9 10 3 7 2 6 10 6 10 16 17 19 22 23 24 25 25 24 25 27
17 16 15 14 13 14 14 14 13 13 13 14 14 14 14 14 13 14 14 13 12 12 11 9 9 11 8 12 21 18 12 10 9 11 11 10 8 7 7 8 7 7 11 16 20 22 18 11 8 10 10 6 2 2 5 6 5 5 1 1 3 7 5 6 1 6 7 2 8 6 3 7 6 12 10 4 15 18 17 20 22 23 24 25 25 24 25 28
14 13 13 13 13 13 14 14 13 12 13 14 14 14 14 13 13 14 14 12 11 10 10 9 9 9 9 15 20 15 13 15 14 14 14 13 11 9 9 9 8 8 11 14 17 19 15 9 9 12 12 9 5 3 6 5 3 2 1 1 1 1 4 8 2 5 4 3 8 7 2 7 9 14 8 4 18 21 19 21 21 23 25 25 26 25 26 28
13 13 12 12 13 13 14 14 13 12 13 14 14 14 13 12 13 13 12 11 10 9 9 8 8 7 8 16 17 11 14 19 20 19 16 15 13 10 9 10 9 8 10 13 16 20 14 9 11 10 7 7 4 1 3 4 3 3 1 2 3 1 4 9 5 2 4 2 4 6 2 6 9 12 7 5 20 22 21 22 21 24 25 26 27 26 27 27
13 13 13 13 13 13 14 13 13 13 13 14 14 12 11 12 12 12 11 10 9 8 7 6 6 6 6 11 10 9 17 23 23 21 17 16 14 8 7 9 9 8 9 11 15 18 14 11 10 7 5 4 2 3 4 4 4 4 2 2 3 1 2 5 5 2 3 2 1 2 3 5 6 5 8 8 20 23 21 23 23 24 26 28 28 27 27 27
13 12 13 13 13 13 14 12 12 13 13 14 13 11 10 11 11 9 9 9 7 6 6 4 3 4 7 8 8 11 19 23 22 20 20 18 12 7 9 11 10 9 9 11 13 14 13 10 6 4 2 1 3 4 3 2 3 3 2 1 2 1 1 2 4 4 3 2 2 1 3 7 8 7 5 5 14 23 22 24 26 24 25 28 28 28 28 28
12 12 12 13 13 13 12 12 12 12 13 13 11 9 9 10 9 8 8 8 6 5 4 6 5 1 9 14 11 9 11 18 20 18 18 17 11 9 12 13 10 9 8 7 10 11 10 6 3 2 1 2 3 5 3 5 4 2 0 2 2 2 1 2 3 3 3 2 3 4 4 10 11 11 10 7 5 20 24 25 25 21 24 27 28 30 29 27
12 12 12 13 12 12 12 11 11 12 13 12 9 7 7 6 6 6 9 10 10 7 1 10 15 4 2 9 12 7 4 11 17 16 16 15 12 12 13 12 9 9 8 4 6 9 7 3 2 3 2 2 4 6 6 7 7 6 4 4 1 3 3 4 5 5 2 2 4 7 7 10 11 10 8 8 4 12 20 21 19 18 21 24 27 29 28 27
12 12 12 12 11 12 11 10 12 12 13 11 7 4 3 3 3 3 9 16 19 15 6 10 21 14 1 5 5 5 4 9 13 14 16 15 14 14 14 12 9 7 7 4 4 5 6 4 2 5 6 6 6 7 8 5 6 5 2 2 1 2 4 5 5 5 1 1 6 10 9 11 10 7 7 12 12 4 8 13 17 18 19 21 24 27 27 28
11 11 12 11 11 11 10 10 12 12 12 12 7 4 5 4 3 0 5 13 20 23 21 19 19 20 16 6 4 6 5 6 13 14 15 16 16 13 12 11 5 4 4 5 4 1 4 5 5 7 8 8 7 6 7 4 4 3 1 1 3 1 4 6 4 6 0 4 5 6 7 11 7 3 10 14 12 9 9 1 10 14 17 20 22 22 22 23
11 11 11 10 10 10 10 11 12 12 12 11 8 8 7 3 3 2 3 9 15 19 24 26 25 28 28 21 18 15 10 6 12 14 16 19 18 12 9 8 4 3 2 3 4 2 2 4 8 8 6 5 4 4 4 3 4 3 1 1 3 2 4 6 4 6 1 3 4 3 6 10 3 7 9 11 8 12 20 17 7 4 9 11 13 16 16 17
11 11 10 10 10 10 10 12 12 12 12 11 10 9 5 3 2 4 7 7 11 15 19 24 28 32 31 26 22 17 10 7 9 15 19 19 18 15 10 7 5 4 3 4 5 3 1 5 8 7 7 6 3 3 6 3 2 3 3 3 2 2 1 3 4 6 3 1 2 5 4 6 4 7 6 8 11 18 25 25 23 15 4 3 9 14 15 16
12 10 10 9 9 10 11 12 12 12 13 13 11 6 2 5 5 6 6 4 7 11 16 22 25 27 30 22 14 14 14 10 8 15 22 21 18 15 10 6 5 4 3 6 7 6 4 6 4 8 8 7 5 3 6 4 1 1 4 5 3 3 3 4 4 6 5 5 2 6 4 4 5 7 5 8 13 20 25 27 29 26 18 8 1 6 13 19
11 9 10 10 10 11 12 12 11 12 14 12 6 3 4 6 5 3 2 2 5 5 8 14 18 22 26 17 10 13 11 9 12 15 20 24 21 13 8 7 6 4 5 7 7 5 7 6 3 7 5 6 6 4 5 6 3 3 4 8 7 6 5 4 3 4 5 5 3 6 5 1 4 7 5 7 10 15 19 22 24 26 25 20 15 7 7 16
10 10 10 10 10 11 12 10 9 10 10 7 3 3 5 6 3 3 3 2 4 3 2 8 12 13 17 16 16 13 3 5 16 15 17 24 24 15 7 5 4 4 6 5 4 2 4 4 6 7 6 6 6 4 5 7 5 1 5 9 8 6 5 3 2 4 3 1 2 4 6 3 3 6 6 7 8 12 14 17 19 23 25 24 23 17 8 5
9 10 11 10 11 12 11 8 8 8 6 3 3 5 4 2 2 5 4 3 3 4 5 7 9 8 13 17 21 14 2 5 13 12 17 22 23 18 9 4 3 4 5 4 2 3 3 5 6 6 6 6 5 4 6 8 7 3 7 6 7 7 7 5 5 4 2 2 3 4 4 4 2 4 6 7 7 11 13 14 16 19 22 22 23 21 17 12
10 10 11 10 11 12 12 11 11 9 6 4 5 5 2 4 8 6 3 1 1 4 4 6 8 8 11 17 23 14 3 10 11 9 21 24 21 16 7 5 6 5 4 6 3 4 3 6 6 6 5 4 5 6 8 10 6 7 8 6 7 7 7 6 6 3 1 2 2 7 3 5 2 5 6 7 6 9 11 12 12 16 20 22 24 24 21 17
11 11 11 10 11 11 12 14 11 7 6 5 5 5 4 8 8 4 1 1 3 2 1 6 7 8 11 15 20 14 5 10 8 9 22 24 20 15 8 9 8 5 4 6 5 6 1 5 7 7 5 4 7 7 10 12 6 6 4 4 4 3 4 4 5 4 3 3 4 7 1 5 1 5 6 5 4 5 7 9 10 15 20 21 24 25 24 20
12 13 11 11 11 11 13 14 8 4 5 6 5 5 7 9 5 2 2 2 2 1 2 7 7 8 13 11 10 11 5 5 6 11 17 18 18 15 10 10 7 5 2 0 3 5 3 2 3 5 6 8 8 5 10 15 9 4 6 5 5 5 5 4 3 4 4 0 6 7 1 5 1 3 3 2 2 3 5 7 9 15 20 21 22 24 24 23
14 13 12 11 11 11 12 10 6 5 5 5 5 5 8 6 1 2 4 2 0 1 2 4 4 7 13 10 7 8 4 2 7 12 10 9 11 7 4 5 3 3 0 2 2 4 5 2 2 5 11 9 4 3 6 11 6 6 5 4 4 2 4 4 4 4 4 3 6 3 4 8 3 2 1 4 5 5 6 7 9 13 17 19 21 22 24 24
14 13 12 12 12 13 10 3 4 7 4 3 4 6 7 2 1 3 3 3 1 1 1 4 5 6 10 9 7 7 4 2 5 8 7 5 5 4 3 4 4 3 1 3 2 5 3 4 3 4 10 8 6 3 2 2 4 5 4 5 5 1 2 1 3 1 3 3 3 3 4 5 1 1 3 7 7 7 9 10 11 14 16 18 19 21 22 24
14 13 13 13 14 15 10 4 6 7 4 3 5 5 4 2 3 4 3 2 1 1 2 2 4 7 10 8 5 6 5 4 5 6 6 6 5 5 3 2 6 6 3 3 1 2 3 5 4 2 5 6 8 5 3 2 3 5 5 5 5 2 2 2 2 0 2 2 2 3 2 3 1 1 5 8 8 9 12 14 14 16 17 17 18 19 20 22
13 13 14 13 14 13 9 8 9 7 5 5 4 3 2 1 4 3 2 2 2 2 4 2 4 7 10 8 5 7 5 3 6 6 4 4 5 5 4 1 4 5 3 3 2 3 2 3 3 3 3 5 7 6 7 6 4 4 4 6 5 4 4 3 3 3 3 2 2 2 3 3 3 0 3 8 11 13 15 15 16 17 17 17 19 19 20 21
13 13 14 13 12 10 8 11 12 8 8 7 3 2 2 3 3 1 2 0 3 3 5 4 7 6 7 5 4 7 5 2 6 6 4 5 5 6 5 4 5 4 4 3 2 2 4 4 7 4 3 4 6 5 6 8 3 1 2 6 3 5 5 3 3 5 5 2 2 3 3 1 2 2 4 7 13 14 15 16 16 16 17 18 19 20 20 21
12 11 12 11 9 8 10 15 15 11 10 8 3 1 4 3 2 2 1 1 2 4 4 2 6 5 5 3 2 6 3 2 5 5 3 5 3 3 4 3 5 5 5 4 3 1 4 4 6 3 3 3 6 6 4 5 4 0 2 4 3 4 7 5 2 1 3 4 1 1 3 2 2 2 4 4 11 11 12 14 14 13 14 16 17 17 17 18
10 9 11 10 7 9 13 17 16 13 12 7 3 3 4 3 3 2 1 2 5 6 2 2 3 4 5 3 3 6 4 3 4 4 3 3 1 1 3 1 3 7 7 5 2 2 4 2 6 1 3 4 1 5 2 2 5 4 2 5 2 3 5 4 2 2 3 4 1 2 3 3 2 0 1 4 9 10 10 11 11 12 13 13 13 14 15 16
8 7 7 6 9 12 14 18 18 14 9 4 1 4 2 2 4 4 3 5 7 3 3 4 3 3 5 5 3 5 6 4 4 4 3 2 1 1 2 1 0 4 9 8 2 2 3 1 6 2 1 2 4 6 3 5 4 6 4 3 4 2 1 1 2 2 2 3 1 3 2 1 1 0 2 5 8 9 9 9 9 10 11 11 12 13 14 17
6 5 4 4 10 12 16 20 18 12 6 3 3 3 2 4 7 9 9 8 4 1 2 3 3 3 4 5 4 4 7 6 5 4 2 2 2 1 1 2 1 1 6 11 5 1 3 2 4 5 3 1 4 4 1 4 5 5 3 3 2 3 4 3 2 3 4 3 2 2 2 1 1 1 3 7 8 9 9 8 7 9 10 11 11 12 14 16
4 3 3 6 9 11 18 20 14 8 3 2 4 3 3 4 8 14 18 12 3 1 0 2 3 3 2 3 3 3 5 5 5 3 1 2 2 0 2 2 2 2 3 8 4 1 3 3 1 5 6 2 3 3 1 3 1 2 4 4 3 2 2 2 1 2 4 4 3 3 1 2 2 1 5 8 8 9 9 7 8 9 10 10 11 11 13 15
3 2 2 7 11 16 21 15 7 3 1 1 1 2 4 6 7 14 21 14 4 1 1 2 3 3 3 2 2 2 3 4 3 3 2 2 3 1 2 1 2 2 4 5 3 1 2 2 2 2 4 4 3 4 3 3 5 4 3 2 1 1 3 4 1 1 2 4 4 5 3 2 2 2 5 8 8 9 10 9 9 9 9 9 9 11 13 16
2 1 3 9 16 22 19 8 1 2 1 1 2 4 7 7 5 9 14 10 3 2 3 3 3 3 2 3 3 2 4 4 3 3 3 2 3 2 2 2 2 3 5 4 1 2 3 4 4 3 2 2 1 3 3 5 9 7 4 2 2 2 4 5 3 3 3 3 2 4 3 1 3 4 6 10 10 11 12 12 10 8 7 8 9 10 13 16
2 3 6 13 19 18 8 2 0 1 1 3 5 8 9 6 4 7 8 5 3 3 4 3 2 3 3 3 4 4 4 4 4 3 4 3 2 2 5 2 2 4 4 2 1 1 2 4 4 2 2 3 4 4 5 7 7 7 5 3 3 2 2 4 5 4 3 2 1 4 2 1 3 5 8 11 13 13 14 12 9 7 6 8 9 10 12 15
5 6 7 14 18 8 1 1 2 1 2 4 4 6 8 7 5 6 5 3 3 2 2 3 3 3 3 4 5 4 3 4 3 3 3 3 1 5 9 7 5 3 3 2 3 2 1 2 4 4 2 4 5 5 6 6 5 4 3 4 4 3 3 3 2 3 3 2 3 5 2 2 4 6 8 10 12 13 14 11 9 7 7 8 9 10 12 15
4 6 6 13 16 6 4 2 2 1 1 3 3 4 6 5 6 7 4 4 6 2 3 3 3 3 4 5 6 6 6 5 3 1 3 3 2 5 11 13 9 5 5 6 4 3 3 2 3 5 4 3 2 2 2 1 2 3 3 5 6 5 4 2 2 4 2 1 3 4 3 4 6 6 7 8 9 10 11 11 10 9 9 9 10 12 13 15
1 2 4 8 12 10 8 6 2 1 2 1 2 4 3 3 4 4 2 6 8 7 5 4 4 5 7 7 7 8 9 7 5 4 3 3 1 3 8 13 13 9 10 12 8 4 5 3 2 5 6 6 5 4 3 2 4 2 3 6 7 4 4 4 4 2 2 3 3 1 6 8 7 6 7 8 7 8 9 10 10 10 10 10 11 13 15 17
1 0 2 4 5 7 8 8 3 2 1 0 1 4 3 3 2 4 7 6 7 8 6 5 6 4 4 6 7 5 6 8 8 6 4 3 2 2 8 12 12 11 9 9 9 4 5 3 3 6 7 4 5 5 4 5 7 5 4 6 7 6 6 6 5 2 4 4 1 2 8 9 6 6 7 7 7 7 8 10 11 10 11 11 12 14 16 18
1 1 1 4 3 3 4 5 3 3 4 3 2 3 3 2 2 3 4 4 7 9 5 5 9 5 4 5 6 3 5 6 6 4 2 3 2 2 8 8 8 10 8 7 8 5 6 3 3 7 10 8 8 9 10 11 9 8 9 7 7 9 10 8 5 2 4 4 3 7 10 8 6 7 7 7 8 8 9 11 12 11 11 12 14 16 17 18
0 2 1 3 2 3 4 3 2 3 5 5 3 4 2 3 5 2 2 4 6 9 5 4 7 7 6 6 6 4 3 4 3 2 1 3 3 3 3 3 5 8 7 5 5 4 4 3 3 8 11 9 7 8 11 12 11 10 11 9 9 11 11 10 8 8 9 8 6 11 13 9 5 6 8 10 11 10 11 13 13 12 12 13 15 17 17 18
1 2 1 0 1 2 4 2 3 3 4 4 2 3 1 4 5 4 5 5 4 4 6 8 7 8 9 9 10 5 1 6 7 3 3 3 3 2 2 2 0 5 6 3 3 4 5 3 1 6 8 5 5 7 10 12 13 12 10 8 7 9 9 8 7 8 10 10 9 12 12 7 5 7 11 12 12 13 14 13 13 13 13 14 15 16 17 18
4 2 1 1 1 1 2 2 4 3 2 1 2 2 2 5 6 7 7 9 7 5 4 8 9 8 8 11 11 6 3 7 9 6 5 6 4 2 2 2 3 2 4 3 2 4 5 4 1 4 5 2 2 5 9 12 14 12 9 8 7 6 5 5 5 4 4 7 9 9 6 4 4 9 12 12 13 14 13 12 13 14 13 14 15 15 16 17
4 0 2 2 1 1 1 1 1 2 1 1 2 1 2 2 3 7 7 10 11 11 9 10 9 7 6 9 8 6 6 10 13 12 12 14 13 11 9 9 8 5 3 2 3 3 4 5 3 3 5 2 2 1 3 6 7 6 5 4 4 4 5 6 6 7 5 3 5 4 4 5 7 9 10 9 10 12 12 12 12 12 13 14 15 15 15 16
Wind_Direction
291 287 280 270 262 259 256 253 253 252 253 255 259 263 266 268 270 272 272 271 273 274 274 274 274 276 279 286 288 286 287 284 280 274 263 259 262 256 246 235 224 218 209 204 211 215 212 208 197 193 192 190 200 202 203 209 196 186 133 122 238 207 204 206 195 218 182 262 284 327 42 104 77 77 112 114 124 123 160 171 84 193 280 221 190 161 172 178
286 289 284 274 265 260 259 257 255 256 255 257 260 262 265 267 269 271 271 272 274 274 274 274 275 278 284 290 289 289 292 292 290 272 258 260 263 247 234 224 219 215 209 208 215 217 212 202 190 190 190 189 200 199 199 204 196 183 119 149 223 203 216 224 218 261 279 271 283 307 22 59 99 129 145 143 88 111 132 83 95 112 110 141 153 163 174 182
285 290 290 281 271 262 261 261 260 260 260 261 261 263 266 267 270 271 272 273 273 275 275 275 276 281 288 290 289 293 298 303 295 273 263 264 252 240 230 221 216 216 214 212 220 224 217 200 191 189 185 191 200 196 193 190 194 194 167 182 236 214 242 265 259 269 279 283 281 293 11 19 71 110 167 169 144 138 166 176 133 120 131 141 155 167 176 181
289 288 288 284 277 267 263 264 262 263 263 263 263 264 266 268 270 271 273 273 274 274 273 275 276 281 288 287 287 294 308 313 294 275 272 258 241 234 222 218 214 214 213 208 216 217 207 193 192 188 181 203 216 213 215 196 192 188 186 194 235 198 230 268 268 272 286 298 281 233 47 0 13 50 156 151 127 259 233 200 196 166 156 154 164 172 178 181
287 289 287 283 277 270 266 264 264 263 264 265 266 267 268 269 269 271 274 274 274 273 272 273 273 280 284 281 283 289 320 332 295 269 255 227 232 225 215 217 212 210 209 204 204 197 192 185 183 182 183 216 219 216 231 216 204 178 224 237 248 215 227 267 278 287 289 292 280 298 66 279 338 18 151 150 146 246 250 219 211 189 173 167 170 176 180 178
281 287 289 285 278 272 268 267 267 265 265 266 268 270 270 269 269 271 273 274 274 271 269 267 269 275 274 275 279 273 256 256 267 147 176 177 210 207 201 209 206 204 205 199 196 192 189 179 175 175 173 193 205 202 225 224 209 221 265 254 250 239 234 265 279 285 279 264 257 283 325 233 346 327 173 171 195 253 273 240 210 193 185 176 173 180 179 170
282 285 287 284 282 277 271 269 268 267 267 268 269 271 271 271 269 269 270 273 271 266 265 264 265 267 267 272 272 257 235 244 251 210 204 123 148 189 185 194 198 202 203 196 194 192 187 181 181 177 159 181 210 214 239 237 204 213 267 266 261 253 245 260 261 260 262 250 240 212 231 262 265 295 233 201 237 275 254 230 203 185 178 176 178 180 173 169
285 287 289 286 281 277 272 270 269 269 269 269 271 271 271 271 269 267 268 269 266 263 262 260 260 261 264 264 264 260 244 248 254 236 237 235 171 173 174 184 192 201 202 197 196 192 187 185 187 179 159 213 209 203 230 241 217 211 244 258 265 263 255 261 258 253 254 249 242 214 214 238 227 242 292 256 274 286 201 203 189 175 175 178 180 176 172 177
288 285 286 287 282 276 272 272 271 270 271 271 272 271 271 271 269 268 266 265 263 261 260 258 258 256 258 254 253 268 253 253 262 242 233 227 204 180 174 181 189 198 199 196 197 195 193 191 191 187 189 234 229 222 208 211 236 210 225 247 262 264 261 261 256 250 249 244 237 227 243 245 231 230 286 268 267 223 187 187 179 174 178 180 179 179 181 185
291 287 285 288 286 278 271 271 272 272 274 274 273 271 270 269 269 267 264 263 262 261 261 259 257 251 251 243 220 241 257 256 251 232 222 217 206 189 182 180 190 198 197 196 194 193 196 195 194 194 214 252 238 234 220 196 221 227 231 250 255 259 266 258 245 243 239 237 227 209 241 248 225 184 258 262 203 195 183 174 177 179 180 179 181 186 189 188
284 282 281 286 288 281 271 272 273 273 275 275 275 273 271 269 268 266 264 262 261 262 262 260 256 248 243 232 212 221 251 251 229 216 209 205 204 200 203 207 207 206 202 200 196 194 196 193 189 194 223 257 251 242 229 202 252 284 281 279 267 265 273 248 228 225 211 226 221 206 236 266 220 151 234 224 176 191 184 172 176 179 179 181 188 193 192 190
277 274 275 280 287 283 272 272 274 274 277 276 276 274 271 268 266 266 264 263 262 263 263 260 252 244 239 234 231 230 238 244 212 197 192 192 201 221 242 246 245 227 209 203 199 196 195 192 198 230 244 247 277 273 255 282 305 298 307 300 296 338 321 246 217 198 189 198 208 195 289 297 268 230 239 212 182 190 185 176 174 178 181 185 194 197 193 191
281 279 281 281 287 285 275 272 273 279 281 277 276 274 270 266 265 266 265 262 261 263 264 256 246 244 241 240 241 236 234 239 212 189 189 194 204 219 226 229 239 239 220 212 205 196 192 198 222 256 268 253 242 273 288 317 325 296 336 149 295 2 339 267 222 171 181 180 175 150 314 280 268 253 252 194 182 182 179 179 175 178 184 190 198 199 195 194
289 284 284 285 287 284 277 273 275 282 282 279 277 272 269 267 265 264 265 264 261 264 262 251 246 242 238 244 247 242 232 232 218 196 195 200 198 204 210 212 221 220 213 213 206 194 193 216 251 271 271 243 231 275 307 339 9 307 342 52 350 20 281 297 318 153 147 203 172 124 259 265 283 275 282 179 185 181 181 184 180 182 186 194 201 203 199 196
293 286 283 287 287 283 279 273 276 283 282 281 277 273 272 268 264 263 266 264 259 259 254 250 241 227 247 257 254 243 227 225 216 200 199 206 197 196 203 199 204 199 198 207 204 197 200 238 260 263 246 220 223 299 342 351 8 22 47 311 334 177 258 310 325 157 142 207 175 123 227 272 284 289 337 149 186 183 186 191 187 188 189 194 202 205 204 200
295 290 284 285 287 284 279 275 280 285 283 282 277 275 274 265 262 263 263 257 255 254 245 243 225 215 265 270 253 231 222 220 214 206 207 208 197 193 196 193 194 184 184 192 195 201 217 256 263 243 209 184 144 89 44 358 343 9 107 226 292 326 292 314 334 330 148 155 298 146 212 280 279 299 39 116 182 187 190 198 197 194 192 195 202 206 206 203
296 294 287 285 287 284 279 280 285 287 285 283 278 277 273 267 263 259 252 242 236 225 212 193 180 230 258 259 248 229 222 218 213 212 212 206 193 180 182 189 188 178 178 183 195 217 238 249 238 220 221 130 108 95 77 313 300 316 20 86 259 286 326 302 326 338 79 107 287 241 208 254 264 271 348 68 180 192 195 203 204 197 194 197 200 205 208 205
295 294 290 286 287 285 281 283 286 287 286 283 283 281 273 267 256 244 234 217 190 167 196 187 139 355 253 240 237 222 218 215 211 213 212 205 189 172 178 186 185 184 193 201 212 224 231 226 178 154 25 71 110 107 148 216 205 213 16 64 319 325 317 276 277 298 10 21 269 271 258 253 265 275 295 348 177 200 205 207 206 196 195 199 201 206 209 205
294 294 291 286 287 287 283 285 286 286 284 282 287 288 280 261 240 237 221 195 177 162 204 200 180 163 274 227 223 224 221 205 206 209 204 198 184 175 181 188 197 195 183 184 213 207 196 181 106 147 171 178 176 146 172 199 170 166 158 133 149 308 288 266 247 259 307 340 256 246 250 250 260 272 290 346 345 220 211 207 206 199 198 201 202 206 208 205
295 296 291 286 288 288 285 288 285 283 283 282 284 285 271 224 198 227 210 206 212 215 237 214 199 208 240 95 166 225 233 188 197 205 196 188 179 178 189 198 204 191 166 151 192 197 171 172 187 189 195 197 195 176 176 175 144 147 123 114 247 277 287 280 264 279 274 169 248 232 230 244 252 275 317 357 1 303 215 197 197 199 201 204 206 208 207 205
296 296 292 288 288 288 289 288 282 279 279 280 282 258 230 194 142 59 220 230 240 236 243 245 230 236 246 243 236 277 298 206 197 199 192 188 181 181 195 197 183 180 189 163 154 121 145 182 223 212 202 190 186 180 177 163 122 120 118 299 302 266 271 274 270 299 212 153 254 238 224 247 252 1 359 6 17 8 0 306 208 210 209 210 212 212 209 205
297 298 296 291 288 290 289 285 280 276 274 277 275 246 230 203 115 36 306 274 268 253 247 249 250 252 251 248 252 269 292 250 206 194 186 185 186 189 183 170 161 184 198 137 121 41 117 219 238 214 187 152 140 133 138 146 126 113 131 205 283 258 282 291 292 308 307 156 257 200 192 248 271 66 30 11 27 27 23 29 21 277 230 226 224 219 212 201
296 300 300 293 289 291 286 283 279 274 272 268 260 241 244 331 325 286 296 289 279 265 247 241 241 248 250 248 250 250 237 223 213 198 186 181 187 194 174 148 169 172 132 138 152 134 142 247 234 184 144 136 144 114 107 102 108 114 157 189 244 239 289 291 289 312 332 14 237 153 165 275 343 65 46 15 39 42 33 38 40 37 43 236 233 229 221 205
294 303 300 291 291 292 285 282 276 270 265 257 252 245 291 333 323 293 282 272 283 269 247 238 235 241 245 245 244 226 211 215 216 197 190 185 183 188 183 156 152 153 165 170 162 170 221 256 203 137 140 160 170 143 122 131 245 255 204 202 190 192 221 233 272 318 349 354 43 107 74 327 0 39 20 356 35 42 31 33 36 34 42 60 126 228 226 215
293 301 297 292 293 290 284 282 273 264 260 255 257 280 306 329 338 305 263 278 284 270 249 231 227 237 237 234 225 205 203 224 217 197 193 193 185 176 180 170 153 174 200 174 156 194 247 257 150 119 140 165 164 181 161 155 195 292 238 216 204 204 233 253 313 0 32 2 0 90 85 294 344 29 14 338 23 38 28 32 32 26 33 41 41 52 196 211
292 294 292 289 289 287 285 281 268 259 256 251 257 274 302 337 328 211 159 15 287 231 186 192 204 225 218 211 209 191 147 241 216 205 197 197 192 177 165 166 155 187 193 167 157 207 244 205 149 139 152 163 172 206 206 161 146 267 240 216 202 193 208 209 51 52 72 303 325 80 118 178 329 13 355 334 21 37 29 33 33 30 32 37 39 48 82 155
288 284 285 282 281 283 281 269 253 251 233 208 237 256 292 313 203 165 131 11 278 185 145 174 189 193 189 193 190 173 89 204 200 212 205 195 191 182 176 184 160 183 175 129 170 231 193 163 153 154 152 157 178 212 210 161 132 225 240 197 173 174 189 177 110 102 185 231 330 3 104 119 347 341 332 337 22 31 28 30 31 35 34 38 45 50 61 74
284 276 277 276 273 274 273 264 255 244 215 212 244 243 246 189 173 144 113 13 182 153 140 173 178 177 178 177 177 173 142 163 168 218 208 194 187 177 175 197 172 178 170 128 189 247 171 162 174 169 153 161 196 205 185 155 147 239 234 177 165 174 174 152 115 123 120 85 313 311 49 91 315 298 333 1 34 26 23 27 27 35 35 36 42 47 55 64
283 274 271 267 267 267 267 264 258 238 220 228 241 231 182 169 169 147 151 208 137 129 148 161 157 170 164 156 174 187 160 159 165 191 189 187 188 182 189 204 173 153 182 156 199 252 229 184 183 154 150 197 219 206 160 157 191 235 193 122 94 81 98 104 110 119 61 74 225 265 28 105 267 311 344 7 34 16 17 27 27 33 37 37 38 40 46 53
281 272 268 264 266 264 262 263 253 228 227 222 229 225 171 161 156 128 204 235 171 117 113 154 161 170 157 143 178 195 167 169 159 148 165 175 184 188 190 195 164 121 184 187 215 252 294 250 191 156 192 214 216 198 162 177 192 143 115 89 59 42 39 50 67 97 88 314 246 257 46 100 161 314 353 10 17 14 26 36 35 36 37 37 37 38 39 41
276 269 270 265 263 258 261 266 235 205 213 224 233 202 166 157 101 149 191 253 266 119 105 155 175 163 158 156 178 184 163 161 142 139 155 167 176 184 150 160 147 99 285 316 284 298 331 308 231 217 224 216 171 138 168 186 172 103 110 104 87 14 14 26 358 53 111 241 259 251 66 80 116 257 41 72 56 47 49 46 41 41 40 38 38 38 37 36
275 272 271 265 260 250 247 248 183 184 189 224 213 170 158 148 281 212 235 322 342 218 187 173 183 168 164 167 172 171 150 125 145 146 153 147 163 193 144 151 165 133 219 239 261 330 321 246 266 261 235 206 140 104 110 128 88 89 104 95 96 5 17 1 298 63 166 240 239 188 85 65 71 229 112 93 76 65 64 59 52 48 44 41 39 38 37 37
275 274 267 260 258 248 233 203 187 185 178 196 184 165 138 103 215 224 261 314 51 209 252 190 175 162 158 165 173 165 143 146 167 157 156 144 151 197 213 180 161 150 185 199 175 339 313 294 307 315 250 197 154 138 134 143 134 136 135 119 124 119 102 220 267 146 215 256 228 200 104 93 209 167 118 112 98 84 75 65 59 53 47 43 40 38 36 36
275 272 266 256 252 245 222 199 199 191 184 182 160 142 121 160 232 217 227 276 39 310 269 161 136 151 160 171 172 155 143 176 174 142 132 137 143 192 229 250 177 160 149 147 147 167 166 303 263 203 235 184 163 166 159 153 149 164 158 126 135 151 140 191 210 168 201 226 305 321 72 128 196 218 101 110 97 85 78 68 60 53 45 42 39 33 29 28
275 272 269 258 245 239 212 195 197 187 181 175 131 99 173 224 252 192 210 300 64 307 278 153 137 149 172 180 162 160 154 189 174 140 136 161 160 187 195 208 203 162 123 154 213 164 146 234 253 248 250 172 166 187 146 123 116 241 143 103 131 183 146 131 175 174 176 143 7 357 68 93 135 44 24 84 87 79 76 69 59 51 41 39 36 27 21 18
279 273 265 256 235 220 204 192 188 181 176 165 127 182 215 237 241 197 261 39 129 263 292 150 149 152 175 188 178 183 160 121 163 148 151 169 159 174 174 204 208 170 138 154 207 143 125 244 278 309 287 220 172 177 153 141 163 217 126 143 199 171 123 114 173 169 110 117 21 343 113 117 113 58 349 72 88 80 77 69 60 52 43 39 35 26 17 12
281 268 257 252 218 200 198 188 181 178 176 164 154 220 233 251 246 242 326 320 272 262 250 164 167 148 166 186 188 182 156 123 159 156 163 170 161 183 161 179 195 185 180 159 197 204 138 263 292 325 251 270 144 120 61 70 133 120 175 186 162 83 91 109 133 21 46 118 250 331 110 144 152 118 245 120 98 89 82 72 62 51 43 41 35 25 16 11
292 285 274 238 198 191 186 179 178 176 166 151 231 252 244 253 266 278 292 286 279 261 151 167 171 131 157 183 198 172 156 165 171 154 154 162 188 183 159 154 69 204 189 155 150 248 121 14 293 296 218 296 35 73 36 347 60 122 172 160 114 120 133 110 128 114 105 137 127 353 10 117 113 266 188 128 107 103 93 77 63 49 40 37 30 21 14 13
319 329 353 163 184 187 175 171 173 172 150 131 218 250 270 268 275 288 298 293 272 170 130 169 142 102 149 170 174 163 162 171 168 150 136 132 149 140 174 185 55 319 181 156 153 246 101 105 284 312 333 350 26 52 157 302 358 68 73 25 65 138 156 162 148 142 152 162 138 62 344 288 205 245 139 116 112 108 96 82 69 53 44 38 28 19 13 14
350 356 44 139 166 170 163 160 162 163 152 178 208 255 301 295 289 297 306 306 263 189 209 165 121 90 138 141 130 158 159 148 139 136 123 93 103 54 290 206 129 44 134 141 138 66 72 89 274 316 333 28 38 358 221 209 226 80 56 21 5 30 111 137 86 81 127 148 146 126 184 257 275 256 114 105 101 100 97 91 77 59 48 41 31 23 18 18
47 30 102 146 152 151 149 146 149 172 196 220 215 261 284 303 304 301 309 311 273 260 25 119 107 109 132 100 98 141 111 96 93 92 80 59 93 139 281 261 178 145 92 91 80 93 113 106 119 345 0 60 65 329 321 120 128 126 102 103 147 139 120 117 106 323 80 121 155 144 162 233 339 47 99 90 85 97 102 97 83 65 54 47 33 28 27 26
60 75 149 150 149 149 145 133 146 197 182 231 284 287 285 301 302 293 309 319 310 354 36 61 75 96 99 92 112 111 89 73 39 75 99 80 107 149 297 308 169 130 106 108 140 160 137 103 93 69 35 110 179 312 1 72 93 90 79 99 127 120 110 119 175 218 75 83 129 106 117 168 35 50 81 84 88 98 95 88 81 66 55 51 37 31 34 34
72 100 139 155 153 150 140 86 337 219 249 268 291 292 283 284 290 293 305 327 359 28 38 17 38 72 46 64 87 78 85 72 32 68 113 88 55 354 334 336 119 84 84 124 190 120 95 86 90 75 342 308 293 319 8 35 63 68 42 29 48 56 104 136 168 169 112 110 106 79 90 176 86 70 81 90 94 93 85 80 80 69 54 48 39 33 35 38
111 100 125 159 161 156 76 129 144 156 278 284 292 285 276 263 254 279 298 345 4 37 72 8 9 61 45 58 74 60 82 88 43 34 91 101 46 7 20 48 85 67 55 135 178 165 99 88 100 99 46 347 338 337 356 9 31 62 21 346 1 34 65 105 118 82 87 151 130 114 142 175 116 93 83 88 89 86 83 81 76 66 50 42 37 34 36 39
110 95 119 162 177 209 283 240 142 112 267 301 302 272 273 264 241 247 269 18 19 44 96 32 3 51 54 59 65 46 46 81 99 51 58 78 55 17 32 50 69 76 70 79 106 134 115 106 122 126 149 176 184 234 248 318 30 48 18 358 5 21 36 82 108 75 90 155 80 101 151 133 109 94 77 76 79 81 82 78 69 56 45 40 37 36 38 39
71 80 113 161 191 222 256 270 281 140 218 292 305 267 245 230 249 272 355 34 22 31 66 45 16 45 50 57 65 42 33 54 80 90 71 63 64 355 28 49 57 67 76 66 56 91 107 72 80 119 143 178 180 196 212 142 87 70 17 11 10 2 20 79 98 81 148 136 44 72 143 124 107 93 79 72 70 75 76 73 66 51 42 37 34 38 43 39
48 34 120 143 194 221 249 269 259 177 236 222 252 272 259 238 276 12 41 44 22 29 56 32 16 49 72 75 84 50 31 51 62 76 80 60 87 18 32 46 42 43 67 55 28 58 104 50 19 76 81 97 118 106 87 85 87 93 73 34 26 30 44 69 83 104 142 126 86 135 124 112 102 90 85 79 72 71 70 70 67 53 41 36 36 43 45 38
91 330 156 147 172 206 224 254 225 197 248 251 245 284 304 28 53 40 33 41 23 23 54 25 8 42 104 103 109 82 42 56 47 53 80 46 58 31 22 28 23 32 60 49 23 69 110 46 12 81 75 65 81 90 88 87 84 76 71 57 43 49 59 67 69 90 119 121 145 128 106 94 91 84 81 81 75 71 67 65 66 58 45 41 43 44 39 32
161 307 241 155 175 194 192 214 161 175 238 232 236 289 296 52 56 34 4 60 34 11 52 73 13 30 60 72 99 94 75 104 76 25 98 53 54 75 43 21 14 29 51 54 29 58 96 53 50 95 86 61 58 83 92 92 87 68 58 59 63 65 67 70 71 77 82 79 93 104 96 86 80 77 82 85 81 76 68 59 55 51 44 42 43 40 35 33
328 315 328 167 273 213 208 218 137 156 241 219 214 296 332 72 62 47 22 66 103 3 41 88 71 54 63 69 81 85 113 137 126 120 143 118 72 83 128 177 104 28 33 46 18 25 73 119 131 90 85 45 37 80 91 91 89 72 48 42 61 68 62 59 65 74 81 83 87 93 93 87 74 79 84 85 80 73 64 53 46 42 42 44 43 40 38 37
332 320 276 250 301 230 197 195 159 166 269 199 190 306 50 81 84 89 44 35 80 101 88 102 90 65 64 66 75 99 131 116 111 109 115 119 116 125 146 165 158 84 34 34 25 30 74 123 124 71 84 37 26 95 103 101 94 78 50 33 42 59 60 50 39 38 83 120 118 103 99 109 110 99 89 79 73 69 59 52 50 46 44 47 46 43 41 39
341 114 200 190 244 284 157 161 153 113 26 229 175 57 73 91 76 98 77 33 51 89 114 114 97 71 63 65 76 115 115 90 89 92 92 90 86 86 85 77 77 91 112 112 68 44 95 119 113 92 99 121 206 177 99 97 91 72 45 40 64 93 92 70 40 26 39 112 134 122 122 129 128 117 101 82 72 69 60 56 57 52 49 51 51 49 45 42
Height
1493 1492 1491 1491 1491 1490 1490 1490 1490 1490 1490 1489 1489 1489 1489 1489 1488 1488 1487 1487 1487 1487 1487 1487 1488 1488 1488 1488 1488 1487 1487 1486 1486 1485 1481 1479 1482 1484 1484 1484 1485 1485 1486 1487 1487 1488 1488 1489 1491 1492 1493 1494 1495 1495 1496 1497 1497 1498 1500 1504 1506 1506 1503 1496 1494 1492 1490 1489 1485 1481 1480 1481 1483 1482 1481 1482 1483 1483 1484 1485 1485 1485 1484 1484 1485 1486 1487 1489
1492 1491 1490 1490 1490 1489 1489 1489 1489 1489 1489 1488 1488 1487 1487 1487 1487 1487 1486 1486 1486 1486 1486 1486 1486 1487 1487 1487 1487 1486 1485 1485 1484 1481 1477 1478 1481 1481 1482 1483 1483 1484 1485 1485 1486 1487 1488 1489 1490 1491 1492 1493 1494 1495 1495 1496 1496 1497 1500 1503 1503 1501 1497 1491 1490 1488 1488 1488 1485 1482 1480 1480 1482 1482 1482 1484 1485 1485 1485 1485 1485 1485 1485 1485 1486 1487 1488 1489
1491 1490 1490 1489 1489 1488 1488 1488 1488 1488 1487 1487 1487 1486 1486 1486 1486 1485 1485 1485 1485 1485 1485 1485 1485 1486 1486 1486 1486 1485 1484 1483 1481 1476 1475 1478 1478 1479 1481 1481 1481 1483 1484 1485 1485 1487 1488 1489 1490 1490 1492 1493 1494 1495 1495 1495 1495 1495 1498 1501 1498 1495 1493 1489 1488 1486 1486 1486 1485 1484 1480 1479 1481 1482 1482 1484 1486 1486 1486 1485 1485 1485 1486 1486 1487 1487 1488 1490
1490 1489 1488 1488 1488 1487 1487 1487 1487 1487 1486 1486 1485 1485 1485 1485 1484 1484 1484 1484 1484 1484 1484 1484 1484 1485 1485 1485 1485 1484 1484 1482 1477 1473 1474 1475 1475 1476 1478 1479 1480 1482 1483 1484 1485 1486 1488 1489 1490 1491 1492 1493 1494 1494 1494 1494 1494 1494 1495 1496 1493 1492 1491 1486 1485 1485 1484 1484 1484 1483 1481 1481 1480 1481 1482 1483 1486 1487 1485 1484 1483 1484 1485 1486 1487 1488 1489 1491
1489 1488 1487 1487 1486 1486 1486 1486 1485 1485 1485 1485 1484 1484 1484 1484 1483 1483 1483 1483 1483 1483 1483 1483 1483 1483 1484 1484 1484 1484 1485 1481 1474 1471 1473 1473 1473 1474 1476 1477 1479 1481 1482 1483 1483 1485 1487 1488 1489 1491 1492 1493 1493 1494 1493 1492 1493 1494 1492 1491 1491 1492 1490 1485 1484 1485 1484 1484 1483 1482 1482 1482 1480 1481 1482 1482 1485 1485 1483 1482 1482 1483 1484 1485 1487 1488 1489 1492
1488 1487 1486 1485 1485 1485 1485 1484 1484 1484 1484 1484 1483 1483 1483 1482 1482 1482 1481 1482 1482 1482 1482 1481 1482 1483 1483 1483 1483 1483 1484 1479 1471 1472 1472 1472 1472 1472 1474 1476 1478 1480 1481 1481 1482 1484 1485 1487 1488 1490 1491 1492 1493 1493 1492 1491 1493 1494 1491 1489 1490 1490 1489 1486 1486 1485 1484 1484 1483 1481 1481 1481 1481 1481 1482 1482 1483 1482 1481 1481 1482 1484 1484 1485 1486 1488 1491 1495
1486 1485 1485 1484 1484 1484 1483 1483 1483 1483 1482 1482 1482 1482 1481 1481 1481 1480 1480 1480 1481 1481 1481 1480 1481 1481 1481 1482 1481 1482 1482 1475 1470 1472 1472 1472 1472 1471 1473 1474 1476 1478 1479 1480 1481 1483 1484 1486 1487 1489 1491 1492 1492 1491 1490 1491 1492 1493 1491 1488 1488 1488 1487 1485 1486 1485 1484 1484 1482 1482 1481 1481 1481 1481 1481 1481 1481 1481 1481 1481 1483 1484 1486 1487 1488 1490 1493 1496
1485 1484 1483 1483 1482 1482 1482 1482 1481 1481 1481 1481 1481 1480 1480 1480 1479 1479 1479 1479 1479 1479 1479 1479 1480 1480 1480 1481 1480 1480 1478 1472 1470 1472 1472 1472 1472 1471 1472 1473 1475 1477 1478 1479 1480 1482 1483 1485 1486 1488 1490 1491 1490 1490 1490 1491 1491 1491 1490 1487 1486 1486 1484 1483 1484 1484 1484 1484 1483 1482 1481 1481 1481 1482 1481 1480 1481 1481 1481 1481 1483 1485 1487 1488 1489 1492 1494 1495
1483 1483 1482 1481 1481 1481 1480 1480 1480 1479 1479 1479 1479 1479 1479 1479 1478 1478 1478 1478 1478 1478 1478 1479 1479 1479 1479 1479 1480 1479 1473 1468 1470 1471 1471 1472 1472 1472 1472 1473 1474 1476 1477 1478 1480 1482 1483 1483 1485 1486 1488 1489 1488 1489 1488 1490 1491 1488 1487 1486 1485 1484 1482 1482 1483 1482 1483 1483 1483 1483 1482 1481 1480 1481 1481 1480 1480 1481 1481 1482 1484 1486 1487 1489 1491 1493 1493 1493
1482 1481 1481 1480 1479 1479 1479 1479 1478 1478 1478 1478 1477 1477 1477 1477 1477 1477 1476 1476 1476 1476 1477 1478 1477 1477 1478 1477 1479 1477 1469 1467 1469 1469 1469 1471 1471 1472 1472 1473 1474 1475 1476 1477 1479 1481 1481 1482 1484 1486 1488 1488 1487 1487 1487 1489 1488 1485 1485 1485 1484 1482 1481 1481 1481 1481 1481 1481 1482 1482 1482 1480 1480 1481 1481 1479 1480 1481 1482 1483 1484 1486 1488 1490 1492 1492 1492 1494
1481 1480 1479 1478 1478 1477 1477 1477 1476 1476 1476 1476 1476 1475 1475 1476 1476 1475 1475 1475 1475 1475 1475 1476 1476 1476 1476 1476 1476 1473 1466 1466 1467 1467 1469 1469 1470 1471 1472 1473 1473 1474 1475 1476 1478 1479 1480 1483 1485 1487 1488 1487 1486 1486 1486 1486 1485 1484 1484 1483 1482 1481 1480 1480 1480 1480 1480 1480 1480 1481 1481 1480 1480 1481 1479 1479 1480 1481 1482 1483 1485 1486 1488 1490 1491 1491 1493 1495
1479 1478 1477 1477 1476 1476 1475 1475 1475 1475 1475 1475 1474 1474 1474 1474 1474 1474 1474 1474 1473 1474 1474 1475 1475 1474 1474 1474 1471 1466 1465 1466 1466 1466 1468 1468 1470 1471 1471 1472 1472 1474 1474 1476 1477 1478 1481 1484 1485 1486 1486 1485 1485 1485 1484 1483 1483 1483 1483 1483 1481 1480 1479 1478 1478 1478 1479 1479 1478 1480 1483 1481 1480 1478 1477 1478 1480 1481 1483 1483 1485 1487 1488 1489 1490 1491 1493 1496
1477 1476 1476 1475 1475 1474 1474 1474 1473 1474 1473 1473 1473 1472 1473 1473 1473 1473 1472 1472 1472 1472 1473 1473 1473 1472 1473 1471 1464 1463 1465 1465 1465 1466 1466 1467 1469 1469 1470 1471 1472 1473 1474 1475 1477 1479 1482 1484 1484 1485 1484 1484 1484 1483 1482 1482 1482 1482 1482 1483 1482 1482 1482 1478 1477 1478 1478 1480 1477 1481 1489 1484 1477 1476 1476 1479 1480 1481 1483 1484 1486 1487 1488 1489 1489 1490 1493 1495
1475 1475 1474 1474 1473 1473 1472 1472 1472 1472 1472 1472 1471 1471 1471 1471 1471 1471 1471 1471 1471 1471 1471 1472 1471 1471 1471 1465 1460 1462 1464 1464 1464 1464 1465 1466 1467 1468 1469 1470 1471 1472 1473 1475 1477 1480 1482 1483 1484 1483 1483 1483 1482 1481 1482 1482 1482 1482 1482 1484 1487 1488 1484 1478 1477 1478 1478 1480 1477 1481 1491 1485 1475 1474 1476 1479 1479 1481 1483 1484 1485 1486 1487 1488 1489 1490 1492 1494
1474 1473 1473 1472 1472 1471 1471 1471 1471 1471 1470 1470 1469 1469 1469 1470 1469 1469 1470 1470 1470 1470 1470 1471 1470 1470 1469 1462 1458 1460 1461 1461 1462 1462 1464 1465 1465 1466 1467 1469 1470 1471 1473 1474 1477 1480 1481 1483 1483 1482 1481 1481 1481 1482 1483 1483 1483 1484 1486 1489 1490 1489 1486 1480 1477 1479 1479 1480 1478 1481 1489 1485 1476 1474 1474 1477 1479 1480 1482 1482 1484 1485 1486 1487 1488 1489 1491 1494
1472 1471 1471 1471 1470 1470 1470 1470 1470 1469 1469 1468 1468 1468 1468 1468 1468 1468 1469 1469 1469 1469 1469 1470 1468 1469 1468 1460 1457 1458 1457 1458 1459 1461 1463 1463 1464 1466 1467 1468 1470 1471 1472 1474 1476 1479 1481 1482 1481 1480 1480 1479 1481 1483 1485 1488 1487 1488 1490 1491 1491 1489 1488 1484 1479 1479 1479 1479 1479 1481 1485 1483 1477 1474 1474 1477 1479 1480 1481 1481 1482 1482 1484 1485 1486 1488 1490 1493
1470 1470 1469 1469 1469 1468 1468 1468 1468 1468 1467 1467 1466 1466 1466 1466 1467 1467 1468 1468 1468 1468 1469 1468 1468 1469 1464 1457 1456 1455 1454 1455 1458 1460 1461 1462 1464 1464 1466 1468 1469 1471 1472 1474 1476 1478 1479 1480 1480 1479 1479 1480 1481 1483 1489 1495 1493 1491 1491 1491 1492 1491 1489 1488 1483 1480 1479 1480 1480 1480 1482 1480 1475 1473 1475 1478 1479 1479 1479 1478 1479 1480 1482 1483 1485 1487 1489 1491
1469 1468 1468 1467 1467 1467 1467 1467 1467 1466 1466 1465 1465 1465 1465 1465 1465 1466 1466 1467 1467 1469 1469 1467 1468 1469 1459 1452 1453 1453 1453 1455 1457 1459 1460 1461 1463 1463 1465 1467 1469 1471 1472 1474 1475 1476 1478 1478 1478 1479 1479 1481 1481 1483 1491 1495 1492 1491 1491 1490 1492 1491 1490 1490 1487 1482 1480 1481 1481 1481 1482 1479 1475 1473 1474 1477 1478 1478 1477 1476 1477 1479 1481 1482 1484 1485 1487 1490
1467 1467 1466 1466 1466 1465 1465 1465 1465 1465 1464 1464 1464 1464 1464 1464 1464 1465 1465 1466 1465 1465 1464 1461 1462 1460 1452 1448 1450 1452 1453 1454 1456 1457 1459 1460 1461 1463 1465 1467 1469 1470 1471 1474 1474 1475 1476 1477 1478 1481 1482 1481 1481 1482 1486 1487 1486 1488 1490 1491 1492 1492 1490 1489 1487 1482 1481 1484 1483 1482 1481 1478 1475 1474 1475 1476 1477 1477 1476 1476 1478 1480 1481 1482 1483 1485 1487 1489
1465 1465 1464 1464 1464 1464 1464 1464 1464 1463 1462 1462 1463 1463 1463 1463 1464 1464 1464 1463 1460 1458 1456 1454 1453 1452 1449 1449 1450 1451 1452 1453 1455 1456 1457 1459 1460 1462 1464 1466 1469 1469 1471 1473 1474 1473 1474 1477 1480 1480 1481 1480 1481 1481 1481 1483 1486 1487 1490 1491 1492 1494 1491 1486 1484 1480 1481 1485 1484 1480 1480 1478 1476 1477 1478 1479 1478 1479 1478 1477 1478 1479 1481 1482 1483 1484 1485 1487
1464 1463 1463 1462 1462 1462 1462 1462 1462 1462 1461 1461 1461 1462 1462 1462 1463 1463 1462 1459 1456 1455 1453 1452 1452 1450 1448 1449 1449 1450 1452 1452 1453 1454 1456 1458 1459 1461 1463 1465 1468 1470 1471 1471 1472 1473 1474 1479 1480 1478 1478 1479 1480 1481 1480 1482 1486 1487 1489 1491 1492 1495 1492 1485 1482 1481 1480 1484 1482 1480 1482 1479 1477 1482 1483 1482 1482 1483 1483 1480 1480 1480 1481 1482 1483 1485 1486 1488
1462 1461 1461 1461 1461 1460 1460 1461 1461 1460 1460 1460 1460 1460 1460 1462 1462 1462 1461 1458 1453 1452 1451 1450 1451 1448 1445 1448 1449 1451 1453 1452 1451 1453 1455 1457 1458 1460 1462 1464 1467 1469 1470 1471 1473 1475 1478 1479 1477 1476 1478 1479 1481 1482 1482 1484 1486 1487 1489 1491 1493 1494 1490 1485 1482 1481 1480 1482 1480 1480 1483 1479 1480 1488 1489 1488 1488 1487 1486 1484 1484 1484 1484 1485 1485 1486 1488 1490
1461 1460 1459 1459 1459 1459 1459 1459 1459 1459 1458 1458 1458 1459 1460 1461 1461 1461 1461 1458 1451 1447 1447 1446 1446 1444 1443 1446 1448 1450 1452 1450 1449 1450 1453 1455 1457 1459 1461 1463 1467 1469 1470 1471 1474 1478 1480 1477 1473 1475 1478 1479 1481 1483 1484 1485 1486 1488 1488 1490 1493 1492 1491 1488 1484 1481 1480 1481 1480 1480 1484 1481 1483 1491 1493 1493 1493 1489 1487 1486 1485 1485 1485 1486 1486 1486 1488 1490
1459 1458 1458 1457 1457 1458 1457 1458 1458 1457 1457 1457 1457 1458 1459 1460 1459 1459 1458 1456 1451 1444 1441 1442 1443 1442 1441 1444 1446 1448 1449 1448 1447 1448 1450 1453 1455 1458 1460 1462 1466 1469 1471 1470 1473 1476 1476 1472 1470 1474 1477 1478 1480 1483 1485 1486 1487 1489 1487 1488 1490 1489 1489 1488 1485 1481 1480 1482 1481 1481 1488 1487 1488 1496 1498 1496 1492 1489 1489 1487 1485 1487 1486 1486 1487 1487 1488 1489
1457 1457 1456 1456 1456 1456 1456 1457 1456 1456 1455 1456 1457 1457 1458 1458 1457 1457 1457 1456 1451 1443 1439 1439 1440 1439 1438 1443 1446 1445 1446 1446 1444 1446 1449 1451 1453 1457 1459 1461 1465 1469 1470 1470 1473 1475 1472 1469 1470 1473 1476 1478 1480 1482 1484 1485 1487 1489 1485 1483 1485 1486 1487 1487 1486 1484 1485 1487 1484 1484 1495 1499 1498 1501 1502 1499 1495 1493 1493 1491 1490 1490 1488 1488 1488 1488 1488 1489
1455 1455 1455 1455 1455 1454 1455 1455 1455 1455 1454 1455 1456 1456 1457 1457 1456 1457 1457 1457 1451 1440 1437 1437 1437 1435 1435 1440 1443 1444 1447 1444 1441 1445 1448 1450 1452 1455 1459 1461 1463 1467 1468 1469 1472 1472 1469 1467 1468 1472 1475 1477 1480 1482 1482 1483 1488 1490 1482 1477 1481 1485 1486 1487 1485 1485 1490 1492 1487 1485 1493 1501 1503 1502 1502 1502 1501 1500 1497 1496 1495 1493 1491 1491 1491 1490 1490 1491
1454 1454 1454 1454 1454 1454 1454 1454 1454 1454 1454 1455 1455 1455 1457 1456 1456 1456 1457 1460 1448 1433 1433 1436 1434 1432 1432 1435 1438 1442 1446 1442 1440 1444 1446 1449 1453 1454 1459 1461 1462 1465 1464 1468 1473 1470 1465 1467 1469 1470 1473 1477 1480 1481 1480 1480 1486 1487 1476 1473 1480 1483 1485 1486 1484 1486 1491 1490 1488 1486 1485 1496 1506 1506 1504 1504 1504 1505 1503 1500 1499 1497 1496 1495 1494 1494 1493 1492
1453 1453 1453 1453 1453 1453 1453 1453 1453 1453 1453 1454 1453 1455 1456 1455 1457 1456 1459 1459 1441 1424 1427 1431 1430 1430 1431 1434 1436 1438 1439 1438 1440 1445 1444 1448 1452 1453 1458 1460 1460 1463 1461 1466 1473 1467 1462 1466 1467 1468 1473 1476 1475 1473 1474 1477 1481 1478 1470 1472 1478 1479 1481 1482 1483 1487 1491 1492 1492 1489 1484 1498 1514 1511 1506 1507 1508 1510 1508 1505 1504 1501 1499 1498 1496 1496 1495 1495
1451 1451 1452 1452 1452 1452 1452 1451 1452 1452 1453 1453 1453 1454 1454 1455 1456 1456 1460 1452 1430 1420 1424 1426 1428 1431 1431 1433 1436 1435 1436 1437 1439 1442 1444 1448 1451 1452 1456 1457 1458 1462 1461 1463 1467 1464 1462 1463 1463 1466 1470 1470 1466 1465 1469 1474 1475 1470 1469 1474 1476 1478 1481 1482 1484 1486 1492 1498 1496 1489 1486 1499 1517 1517 1513 1513 1513 1514 1512 1509 1507 1505 1502 1500 1499 1498 1497 1498
1450 1450 1451 1451 1451 1451 1450 1450 1451 1452 1452 1452 1453 1453 1453 1456 1456 1458 1461 1444 1423 1421 1425 1424 1427 1429 1429 1433 1435 1435 1436 1437 1438 1441 1444 1448 1451 1452 1454 1456 1457 1461 1462 1463 1463 1462 1461 1461 1462 1463 1463 1462 1460 1463 1467 1468 1469 1468 1471 1475 1476 1480 1481 1484 1489 1487 1495 1504 1495 1490 1491 1494 1508 1519 1519 1516 1515 1515 1514 1512 1510 1507 1505 1503 1501 1501 1500 1500
1449 1449 1449 1449 1449 1449 1449 1449 1450 1451 1452 1452 1452 1453 1453 1455 1456 1460 1453 1431 1421 1425 1425 1426 1427 1426 1428 1431 1434 1436 1437 1438 1438 1441 1446 1448 1451 1452 1454 1457 1459 1462 1465 1464 1464 1462 1461 1461 1461 1458 1457 1457 1458 1463 1465 1465 1467 1469 1472 1474 1479 1485 1486 1489 1492 1491 1501 1507 1495 1494 1497 1495 1508 1520 1518 1516 1516 1514 1513 1513 1512 1509 1508 1506 1505 1504 1503 1503
1447 1447 1447 1447 1448 1448 1448 1449 1449 1450 1451 1451 1452 1452 1453 1457 1459 1457 1440 1424 1427 1429 1423 1426 1426 1425 1428 1429 1432 1435 1436 1439 1439 1441 1445 1448 1452 1453 1453 1457 1459 1465 1471 1469 1466 1464 1461 1460 1459 1456 1454 1454 1457 1463 1467 1467 1469 1471 1472 1475 1485 1496 1498 1499 1501 1501 1503 1501 1497 1499 1499 1504 1518 1520 1515 1516 1516 1515 1514 1514 1513 1512 1510 1509 1508 1507 1506 1505
1446 1445 1445 1446 1446 1445 1447 1448 1449 1450 1450 1451 1452 1451 1453 1458 1455 1446 1435 1428 1430 1428 1422 1424 1424 1423 1428 1431 1433 1434 1435 1439 1440 1441 1444 1447 1452 1454 1453 1454 1455 1459 1467 1470 1469 1468 1465 1461 1458 1456 1454 1452 1455 1462 1467 1470 1469 1469 1471 1476 1487 1500 1507 1510 1513 1513 1507 1498 1499 1500 1499 1513 1525 1519 1515 1517 1516 1516 1515 1515 1515 1514 1513 1512 1511 1510 1508 1507
1444 1443 1443 1444 1443 1444 1446 1448 1448 1449 1450 1451 1452 1452 1456 1457 1445 1435 1434 1430 1427 1426 1423 1422 1424 1425 1427 1430 1432 1432 1436 1440 1438 1441 1446 1448 1453 1455 1454 1455 1454 1454 1460 1467 1470 1470 1472 1469 1458 1455 1454 1450 1452 1455 1458 1462 1465 1468 1469 1472 1481 1490 1497 1505 1506 1505 1502 1499 1500 1500 1504 1518 1525 1520 1517 1516 1515 1516 1515 1516 1517 1516 1515 1513 1511 1510 1508 1508
1442 1441 1441 1441 1441 1443 1444 1446 1447 1448 1450 1450 1451 1454 1457 1451 1438 1432 1431 1427 1428 1430 1424 1419 1423 1428 1430 1429 1429 1430 1433 1438 1438 1441 1447 1449 1452 1454 1454 1453 1453 1453 1457 1465 1469 1467 1472 1469 1454 1450 1451 1448 1450 1451 1451 1457 1466 1471 1470 1471 1477 1477 1480 1493 1500 1498 1496 1499 1507 1512 1516 1522 1522 1520 1519 1516 1516 1516 1516 1518 1518 1517 1517 1514 1512 1511 1509 1508
1440 1439 1439 1439 1440 1441 1442 1444 1446 1447 1449 1450 1452 1455 1452 1443 1433 1431 1428 1424 1429 1430 1425 1423 1424 1429 1434 1432 1431 1430 1431 1435 1438 1441 1447 1449 1449 1451 1451 1450 1451 1451 1454 1461 1466 1466 1469 1465 1453 1450 1449 1446 1448 1449 1449 1453 1462 1471 1471 1470 1473 1470 1472 1486 1500 1503 1497 1498 1515 1523 1522 1524 1523 1521 1520 1519 1518 1518 1518 1520 1520 1520 1519 1517 1515 1514 1512 1511
1438 1438 1437 1437 1438 1439 1440 1443 1445 1447 1448 1450 1453 1452 1446 1438 1431 1428 1426 1424 1425 1424 1424 1429 1426 1427 1434 1434 1432 1431 1431 1434 1437 1442 1447 1449 1450 1451 1450 1449 1448 1449 1449 1453 1459 1462 1464 1462 1455 1452 1451 1448 1448 1448 1449 1450 1454 1465 1469 1466 1469 1473 1475 1481 1493 1504 1501 1502 1519 1526 1522 1524 1525 1523 1522 1521 1520 1520 1521 1522 1522 1522 1521 1520 1519 1517 1515 1514
1437 1436 1435 1435 1437 1438 1439 1442 1444 1447 1448 1450 1453 1449 1442 1437 1430 1426 1425 1424 1422 1421 1423 1426 1424 1424 1429 1432 1432 1430 1430 1436 1439 1442 1446 1449 1450 1450 1449 1449 1447 1447 1447 1449 1455 1458 1461 1463 1457 1453 1453 1451 1449 1450 1454 1454 1452 1457 1462 1461 1467 1475 1480 1483 1490 1500 1502 1508 1523 1529 1526 1526 1525 1523 1522 1521 1522 1522 1523 1524 1524 1524 1523 1522 1521 1519 1517 1516
1436 1435 1434 1434 1436 1437 1439 1442 1444 1447 1448 1451 1453 1448 1441 1436 1429 1425 1425 1422 1420 1419 1420 1420 1420 1422 1425 1427 1429 1428 1429 1434 1438 1442 1446 1448 1450 1449 1447 1447 1446 1446 1446 1447 1453 1456 1459 1464 1462 1456 1453 1452 1454 1458 1462 1462 1457 1456 1460 1462 1466 1471 1476 1480 1486 1491 1495 1507 1522 1529 1528 1526 1523 1522 1521 1521 1523 1523 1524 1526 1526 1526 1525 1523 1522 1521 1519 1518
1436 1435 1435 1435 1436 1438 1440 1443 1445 1447 1449 1449 1449 1446 1440 1435 1429 1424 1423 1421 1418 1416 1417 1417 1417 1421 1423 1423 1425 1426 1428 1432 1436 1442 1445 1447 1449 1448 1446 1446 1445 1446 1446 1447 1451 1454 1458 1465 1466 1461 1456 1458 1465 1468 1469 1467 1462 1461 1464 1468 1470 1472 1475 1478 1485 1491 1490 1497 1514 1524 1528 1527 1522 1520 1520 1521 1523 1524 1525 1527 1527 1527 1527 1525 1524 1523 1521 1520
1436 1435 1436 1436 1437 1439 1441 1444 1446 1447 1448 1447 1446 1444 1439 1434 1430 1424 1420 1419 1417 1414 1415 1415 1415 1419 1422 1422 1424 1425 1429 1434 1438 1442 1445 1447 1449 1449 1446 1444 1445 1445 1447 1449 1451 1454 1458 1463 1467 1468 1468 1471 1474 1472 1468 1466 1464 1466 1469 1475 1478 1477 1477 1480 1490 1497 1493 1496 1506 1513 1521 1527 1524 1521 1521 1522 1524 1525 1527 1527 1527 1528 1528 1527 1526 1524 1523 1522
1435 1436 1437 1437 1438 1440 1442 1444 1446 1446 1447 1445 1444 1442 1438 1434 1430 1425 1421 1418 1416 1415 1414 1415 1416 1419 1421 1422 1423 1424 1429 1437 1440 1442 1446 1447 1448 1448 1445 1444 1444 1444 1446 1452 1454 1454 1456 1461 1469 1475 1478 1479 1476 1472 1469 1466 1465 1467 1471 1478 1481 1478 1477 1479 1486 1493 1496 1503 1507 1506 1516 1527 1527 1524 1523 1524 1526 1527 1527 1527 1528 1530 1529 1528 1527 1525 1524 1523
1436 1437 1438 1439 1441 1442 1443 1445 1446 1446 1445 1444 1443 1440 1437 1435 1431 1426 1423 1419 1416 1416 1417 1417 1417 1419 1421 1420 1422 1425 1430 1438 1443 1444 1446 1448 1448 1447 1446 1444 1444 1444 1446 1452 1454 1453 1456 1464 1473 1479 1479 1476 1472 1470 1469 1465 1465 1470 1476 1481 1482 1481 1480 1480 1482 1486 1493 1503 1505 1503 1516 1529 1528 1526 1526 1526 1528 1528 1528 1529 1530 1531 1530 1529 1527 1526 1524 1523
1436 1437 1439 1441 1442 1443 1444 1444 1445 1445 1444 1443 1442 1439 1436 1434 1430 1427 1424 1420 1419 1418 1420 1421 1419 1420 1422 1421 1423 1427 1430 1437 1445 1445 1444 1447 1448 1447 1446 1444 1444 1445 1447 1450 1452 1452 1457 1467 1474 1481 1486 1484 1480 1477 1473 1471 1474 1480 1485 1487 1485 1484 1483 1482 1485 1485 1491 1504 1503 1499 1516 1529 1527 1528 1529 1527 1529 1529 1529 1531 1532 1532 1531 1529 1528 1526 1525 1524
1437 1438 1440 1442 1443 1444 1444 1443 1444 1445 1445 1444 1443 1440 1437 1433 1429 1427 1425 1422 1421 1421 1422 1423 1422 1422 1423 1422 1426 1430 1430 1433 1442 1446 1445 1447 1449 1448 1447 1446 1445 1446 1447 1449 1450 1451 1460 1470 1472 1476 1486 1489 1487 1485 1481 1481 1483 1487 1491 1491 1489 1487 1483 1481 1485 1484 1490 1505 1507 1505 1517 1528 1528 1529 1530 1529 1530 1531 1531 1533 1533 1532 1532 1530 1528 1527 1526 1525
1437 1439 1442 1443 1444 1445 1444 1443 1444 1445 1445 1445 1443 1438 1435 1432 1428 1425 1424 1423 1423 1423 1423 1425 1425 1424 1425 1427 1431 1436 1436 1435 1439 1444 1447 1449 1450 1450 1449 1447 1447 1447 1448 1449 1450 1452 1463 1475 1474 1471 1475 1479 1482 1484 1484 1484 1488 1491 1495 1495 1493 1493 1489 1484 1485 1488 1494 1504 1510 1513 1517 1523 1529 1531 1531 1531 1532 1532 1533 1533 1533 1533 1532 1530 1529 1527 1526 1525
1438 1439 1441 1442 1444 1445 1444 1443 1444 1444 1444 1445 1443 1437 1433 1431 1428 1426 1425 1425 1425 1425 1426 1429 1428 1427 1429 1431 1435 1441 1443 1441 1442 1446 1450 1451 1451 1451 1449 1448 1448 1448 1449 1450 1451 1454 1464 1476 1478 1476 1479 1482 1483 1486 1487 1487 1492 1497 1499 1500 1499 1497 1494 1490 1492 1499 1503 1502 1506 1515 1517 1522 1531 1533 1532 1533 1533 1533 1534 1534 1533 1533 1532 1531 1529 1527 1526 1526
1439 1439 1439 1440 1442 1444 1444 1443 1443 1444 1444 1445 1443 1437 1432 1430 1428 1429 1427 1427 1428 1426 1428 1433 1434 1432 1432 1432 1436 1444 1447 1448 1450 1452 1452 1452 1452 1452 1452 1452 1451 1451 1451 1452 1454 1456 1465 1477 1480 1480 1486 1489 1489 1489 1490 1492 1497 1501 1502 1503 1503 1500 1498 1500 1504 1508 1508 1503 1506 1516 1522 1526 1533 1534 1533 1535 1535 1535 1536 1534 1534 1534 1533 1532 1530 1528 1527 1526
1439 1440 1439 1440 1440 1441 1442 1441 1442 1443 1443 1443 1441 1436 1432 1431 1430 1431 1429 1429 1433 1432 1432 1439 1442 1438 1436 1435 1437 1445 1449 1450 1453 1455 1454 1455 1455 1455 1456 1456 1455 1454 1453 1455 1458 1459 1468 1482 1484 1482 1489 1494 1494 1494 1493 1495 1500 1503 1505 1505 1505 1505 1505 1507 1510 1510 1510 1512 1515 1520 1526 1531 1535 1535 1535 1536 1536 1536 1536 1535 1535 1534 1533 1532 1530 1529 1528 1526
1440 1440 1440 1440 1440 1440 1440 1440 1442 1443 1441 1440 1439 1435 1432 1432 1432 1432 1432 1433 1438 1438 1436 1441 1445 1442 1440 1439 1440 1446 1450 1449 1450 1453 1454 1455 1456 1456 1458 1458 1457 1457 1456 1459 1462 1461 1469 1484 1487 1484 1492 1500 1499 1498 1497 1497 1502 1507 1511 1510 1507 1508 1510 1512 1513 1512 1513 1520 1524 1524 1529 1535 1536 1536 1537 1537 1537 1537 1536 1536 1536 1536 1535 1534 1532 1531 1529 1527
1440 1440 1440 1440 1440 1439 1440 1440 1440 1441 1438 1436 1437 1434 1433 1434 1433 1433 1436 1437 1438 1440 1441 1443 1444 1444 1444 1444 1445 1449 1451 1449 1449 1451 1452 1453 1455 1456 1457 1458 1458 1458 1459 1462 1464 1464 1469 1483 1488 1487 1496 1505 1504 1501 1500 1498 1500 1507 1515 1516 1513 1512 1514 1516 1516 1515 1515 1521 1524 1524 1529 1535 1537 1537 1538 1538 1538 1537 1538 1538 1538 1537 1537 1536 1534 1532 1531 1530
1440 1440 1440 1439 1439 1438 1439 1439 1439 1438 1436 1434 1435 1434 1434 1436 1434 1433 1438 1442 1442 1442 1444 1444 1443 1445 1447 1448 1450 1451 1451 1451 1451 1452 1452 1453 1454 1455 1456 1458 1458 1459 1461 1464 1467 1469 1472 1481 1487 1488 1496 1506 1504 1501 1500 1495 1495 1505 1516 1519 1518 1517 1517 1517 1519 1518 1518 1520 1521 1522 1527 1534 1537 1537 1538 1539 1539 1539 1540 1540 1540 1540 1539 1537 1536 1534 1533 1532